Weather History for KMLP - February, 2013

Change the Weather History Date:

Wednesday, February 6, 2013

  Actual Average (K3TH) Record (K3TH)
Temperature  
Mean Temperature 24 °F -  
Max Temperature 26 °F 35 °F 43 °F (1998)
Min Temperature 21 °F 25 °F 19 °F (1997)
Degree Days  
Heating Degree Days 42    
Moisture  
Dew Point 23 °F    
Average Humidity 96    
Maximum Humidity 100    
Minimum Humidity 86    
Precipitation  
Precipitation 0.00 in - - ()
Sea Level Pressure  
Sea Level Pressure 29.93 in    
Wind  
Wind Speed 6 mph (SSW)    
Max Wind Speed 13 mph    
Max Gust Speed 30 mph    
Visibility 2 miles    
Events Fog , Snow    
Averages and records for this station are not official NWS values.
T = Trace of Precipitation, MM = Missing Value Source: NWS Daily Summary

Daily Weather History Graph

Daily Weather History Graph

Search for Another Location

Airport or City:

Trip Planner

Search our weather history database for the weather conditions in past years. The results will help you decide how hot, cold, wet, or windy it might be!

Date:

Astronomy

Feb. 06, 2013 Rise Set
Actual Time 7:01 AM PST 4:52 PM PST
Civil Twilight 6:29 AM PST 5:25 PM PST
Nautical Twilight 5:52 AM PST 6:01 PM PST
Astronomical Twilight 5:16 AM PST 6:37 PM PST
Moon 3:57 AM PST (2/6) 1:07 PM PST (2/6)
Length of Visible Light 10h 56m
Length of Day
9h 51m
Waning Crescent, 16% of the Moon is Illuminated
Feb 6
Waning Crescent
Feb 9
New
Feb 17
First Quarter
Feb 25
Full
Mar 4
Last Quarter

Hourly Weather History & Observations

Time (PST) Temp. Windchill Dew Point Humidity Pressure Visibility Wind Dir Wind Speed Gust Speed Precip Events Conditions
12:00 AM 24.8 °F 17.9 °F 24.8 °F 100% 29.80 in 1.8 mi Variable 5.8 mph - 0.00 in Snow Light Snow
12:03 AM 24.8 °F 17.9 °F 24.8 °F 100% 29.81 in 2.0 mi Variable 5.8 mph - 0.00 in Snow Light Snow
12:07 AM 24.8 °F 16.9 °F 24.8 °F 100% 29.81 in 3.0 mi Variable 6.9 mph - 0.00 in Snow Light Snow
12:53 AM 25.0 °F 17.1 °F 24.1 °F 96% 29.75 in 3.0 mi Variable 6.9 mph - 0.00 in Snow Light Snow
1:24 AM 24.8 °F 16.9 °F 24.8 °F 100% 29.82 in 2.5 mi Variable 6.9 mph - 0.00 in Snow Light Snow
1:26 AM 24.8 °F 20.5 °F 24.8 °F 100% 29.82 in 1.8 mi Variable 3.5 mph - 0.00 in Snow Light Snow
1:35 AM 24.8 °F 14.6 °F 24.8 °F 100% 29.82 in 2.0 mi WSW 10.4 mph - 0.00 in Snow Light Snow
1:43 AM 24.8 °F 17.9 °F 24.8 °F 100% 29.82 in 1.2 mi Variable 5.8 mph 19.6 mph 0.00 in Snow Light Snow
1:53 AM 25.0 °F 18.1 °F 24.1 °F 96% 29.90 in 1.0 mi Variable 5.8 mph - 0.00 in Snow Light Snow
2:04 AM 24.8 °F 14.0 °F 24.8 °F 100% 29.82 in 0.2 mi WSW 11.5 mph 29.9 mph 0.00 in Fog , Snow Snow
2:23 AM 24.8 °F 14.0 °F 24.8 °F 100% 29.82 in 1.0 mi West 11.5 mph 21.9 mph 0.00 in Snow Light Snow
2:44 AM 24.8 °F 13.4 °F 23.0 °F 93% 29.82 in 1.8 mi West 12.7 mph 29.9 mph 0.00 in Snow Light Snow
2:50 AM 24.8 °F 15.3 °F 23.0 °F 93% 29.82 in 3.0 mi West 9.2 mph 29.9 mph 0.00 in Snow Light Snow
2:51 AM 24.1 °F 13.7 °F 23.0 °F 96% 29.92 in 3.0 mi West 10.4 mph 29.9 mph 0.00 in Snow Light Snow
3:59 AM 24.8 °F 17.9 °F 23.0 °F 93% 29.82 in 1.2 mi Variable 5.8 mph - 0.00 in Snow Light Snow
4:06 AM 24.8 °F 17.9 °F 23.0 °F 93% 29.83 in 0.8 mi Variable 5.8 mph - 0.00 in Snow Light Snow
4:14 AM 24.8 °F 17.9 °F 23.0 °F 93% 29.83 in 1.2 mi Variable 5.8 mph - 0.00 in Snow Light Snow
4:26 AM 24.8 °F 20.5 °F 23.0 °F 93% 29.83 in 0.8 mi Variable 3.5 mph - 0.00 in Snow Light Snow
4:53 AM 24.1 °F 18.2 °F 23.0 °F 96% 29.95 in 0.5 mi Variable 4.6 mph - 0.00 in Fog , Snow Snow
5:23 AM 23.0 °F 15.8 °F 23.0 °F 100% 29.84 in 1.5 mi WSW 5.8 mph - 0.00 in Snow Light Snow
5:34 AM 23.0 °F 17.0 °F 21.2 °F 93% 29.84 in 1.2 mi Variable 4.6 mph - 0.00 in Snow Light Snow
5:39 AM 23.0 °F 14.7 °F 21.2 °F 93% 29.84 in 2.0 mi SW 6.9 mph - 0.00 in Snow Light Snow
5:49 AM 23.0 °F 15.8 °F 21.2 °F 93% 29.84 in 1.2 mi Variable 5.8 mph - 0.00 in Snow Light Snow
5:53 AM 23.0 °F 18.4 °F 23.0 °F 100% 29.96 in 1.2 mi Variable 3.5 mph - 0.00 in Snow Light Snow
6:02 AM 23.0 °F 15.8 °F 23.0 °F 100% 29.84 in 0.5 mi Variable 5.8 mph - 0.00 in Fog , Snow Snow
6:53 AM 23.0 °F 15.8 °F 23.0 °F 100% 29.98 in 1.0 mi Variable 5.8 mph - 0.00 in Snow Light Snow
7:15 AM 23.0 °F 15.8 °F 21.2 °F 93% 29.86 in 1.2 mi SW 5.8 mph - 0.00 in Snow Light Snow
7:36 AM 23.0 °F 18.4 °F 21.2 °F 93% 29.87 in 0.5 mi Variable 3.5 mph - 0.00 in Fog , Snow Snow
7:44 AM 23.0 °F 17.0 °F 23.0 °F 100% 29.87 in 0.2 mi Variable 4.6 mph - 0.00 in Fog , Snow Snow
7:53 AM 23.0 °F 17.0 °F 23.0 °F 100% 30.00 in 0.2 mi Variable 4.6 mph - 0.00 in Fog , Snow Snow
8:04 AM 23.0 °F 17.0 °F 23.0 °F 100% 29.87 in 0.5 mi Variable 4.6 mph - 0.00 in Fog , Snow Snow
8:13 AM 24.8 °F 20.5 °F 23.0 °F 93% 29.88 in 0.2 mi Variable 3.5 mph - 0.00 in Fog , Snow Snow
8:41 AM 24.8 °F 16.9 °F 23.0 °F 93% 29.89 in 0.8 mi Variable 6.9 mph - 0.00 in Snow Light Snow
8:44 AM 24.8 °F 19.1 °F 23.0 °F 93% 29.89 in 1.0 mi Variable 4.6 mph - 0.00 in Snow Light Snow
8:47 AM 24.8 °F 17.9 °F 23.0 °F 93% 29.89 in 0.8 mi Variable 5.8 mph - 0.00 in Snow Light Snow
8:53 AM 24.1 °F 17.0 °F 23.0 °F 96% 30.00 in 0.5 mi Variable 5.8 mph - 0.00 in Fog , Snow Snow
9:12 AM 24.8 °F 20.5 °F 24.8 °F 100% 29.89 in 0.5 mi Variable 3.5 mph - 0.00 in Fog , Snow Light Snow
9:31 AM 24.8 °F 19.1 °F 24.8 °F 100% 29.90 in 0.2 mi West 4.6 mph - 0.00 in Fog , Snow Light Snow
9:53 AM 24.1 °F 19.7 °F 24.1 °F 100% 30.03 in 2.0 mi Variable 3.5 mph - 0.00 in Snow Light Snow
9:56 AM 24.8 °F - 24.8 °F 100% 29.91 in 1.2 mi Calm Calm - 0.00 in Snow Light Snow
10:03 AM 24.8 °F 19.1 °F 24.8 °F 100% 29.91 in 0.5 mi Variable 4.6 mph - 0.00 in Fog Light Freezing Fog
10:09 AM 24.8 °F 20.5 °F 24.8 °F 100% 29.92 in 1.8 mi Variable 3.5 mph - 0.00 in   Overcast
10:16 AM 24.8 °F 20.5 °F 24.8 °F 100% 29.92 in 0.8 mi Variable 3.5 mph - 0.00 in   Overcast
10:25 AM 24.8 °F - 24.8 °F 100% 29.92 in 0.2 mi Calm Calm - 0.00 in Fog , Snow Light Snow
10:53 AM 25.0 °F 20.7 °F 25.0 °F 100% 30.04 in 0.2 mi Variable 3.5 mph - 0.00 in Fog , Snow Light Snow
11:14 AM 26.6 °F 22.6 °F 24.8 °F 93% 29.92 in 0.8 mi Variable 3.5 mph - 0.00 in Snow Light Snow
11:22 AM 24.8 °F 19.1 °F 24.8 °F 100% 29.93 in 1.2 mi Variable 4.6 mph - 0.00 in Snow Light Snow
11:25 AM 24.8 °F 19.1 °F 24.8 °F 100% 29.93 in 2.0 mi Variable 4.6 mph - 0.00 in Snow Light Snow
11:35 AM 24.8 °F 20.5 °F 23.0 °F 93% 29.93 in 6.0 mi Variable 3.5 mph - 0.00 in   Overcast
11:42 AM 24.8 °F 17.9 °F 23.0 °F 93% 29.93 in 5.0 mi Variable 5.8 mph - 0.00 in   Overcast
11:50 AM 24.8 °F 15.3 °F 23.0 °F 93% 29.93 in 1.8 mi West 9.2 mph - 0.00 in Snow Light Snow
11:53 AM 24.1 °F 19.7 °F 23.0 °F 96% 30.05 in 1.5 mi Variable 3.5 mph - 0.00 in Snow Light Snow
12:03 PM 24.8 °F 16.9 °F 23.0 °F 93% 29.93 in 3.0 mi Variable 6.9 mph - 0.00 in Snow Light Snow
12:14 PM 24.8 °F 20.5 °F 24.8 °F 100% 29.93 in 1.8 mi Variable 3.5 mph - 0.00 in Snow Light Snow
12:17 PM 24.8 °F 20.5 °F 24.8 °F 100% 29.94 in 1.0 mi Variable 3.5 mph - 0.00 in Snow Light Snow
12:25 PM 24.8 °F 20.5 °F 23.0 °F 93% 29.93 in 0.2 mi Variable 3.5 mph - 0.00 in Fog , Snow Light Snow
12:34 PM 24.8 °F 17.9 °F 23.0 °F 93% 29.93 in 0.5 mi Variable 5.8 mph - 0.00 in Fog , Snow Light Snow
12:42 PM 24.8 °F 20.5 °F 23.0 °F 93% 29.93 in 1.8 mi Variable 3.5 mph - 0.00 in Snow Light Snow
12:44 PM 24.8 °F 16.1 °F 23.0 °F 93% 29.93 in 3.0 mi WSW 8.1 mph - 0.00 in Snow Light Snow
12:49 PM 24.8 °F 17.9 °F 21.2 °F 86% 29.93 in 3.0 mi Variable 5.8 mph - 0.00 in Snow Light Snow
12:53 PM 24.1 °F 17.0 °F 21.9 °F 91% 30.05 in 2.5 mi Variable 5.8 mph - 0.00 in Snow Light Snow
1:04 PM 24.8 °F 15.3 °F 21.2 °F 86% 29.93 in 9.0 mi WSW 9.2 mph - 0.00 in   Overcast
1:19 PM 24.8 °F 17.9 °F 21.2 °F 86% 29.94 in 10.0 mi Variable 5.8 mph - 0.00 in   Overcast
1:53 PM 24.1 °F 17.0 °F 21.9 °F 91% 30.06 in 9.0 mi Variable 5.8 mph - 0.00 in   Overcast
2:11 PM 24.8 °F 20.5 °F 21.2 °F 86% 29.94 in 10.0 mi Variable 3.5 mph - N/A   Overcast
2:15 PM 24.8 °F 20.5 °F 21.2 °F 86% 29.94 in 10.0 mi Variable 3.5 mph - N/A   Overcast
2:27 PM 24.8 °F - 23.0 °F 93% 29.95 in 1.8 mi Calm Calm - 0.00 in Snow Light Snow
2:33 PM 24.8 °F 20.5 °F 23.0 °F 93% 29.95 in 0.8 mi Variable 3.5 mph - 0.00 in Snow Light Snow
2:41 PM 24.8 °F - 24.8 °F 100% 29.95 in 0.8 mi Calm Calm - 0.00 in Snow Light Snow
2:49 PM 24.8 °F 19.1 °F 24.8 °F 100% 29.95 in 1.5 mi Variable 4.6 mph - 0.00 in Snow Light Snow
2:53 PM 25.0 °F 20.7 °F 24.1 °F 96% 30.07 in 3.0 mi Variable 3.5 mph - 0.00 in Snow Light Snow
2:57 PM 24.8 °F 17.9 °F 23.0 °F 93% 29.95 in 1.8 mi Variable 5.8 mph - 0.00 in Snow Light Snow
3:02 PM 24.8 °F 19.1 °F 23.0 °F 93% 29.96 in 0.8 mi Variable 4.6 mph - 0.00 in Snow Light Snow
3:26 PM 24.8 °F 19.1 °F 24.8 °F 100% 29.96 in 0.2 mi Variable 4.6 mph - 0.00 in Fog , Snow Snow
3:53 PM 24.1 °F 16.0 °F 23.0 °F 96% 30.09 in 0.2 mi Variable 6.9 mph - 0.00 in Fog , Snow Snow
4:01 PM 24.8 °F 19.1 °F 23.0 °F 93% 29.96 in 0.8 mi Variable 4.6 mph - 0.00 in Snow Light Snow
4:05 PM 24.8 °F 19.1 °F 23.0 °F 93% 29.96 in 1.5 mi Variable 4.6 mph - 0.00 in Snow Light Snow
4:08 PM 24.8 °F 20.5 °F 23.0 °F 93% 29.96 in 3.0 mi Variable 3.5 mph - 0.00 in Snow Light Snow
4:36 PM 24.8 °F 20.5 °F 23.0 °F 93% 29.96 in 9.0 mi Variable 3.5 mph - 0.00 in   Overcast
4:53 PM 24.1 °F 19.7 °F 21.9 °F 91% 30.10 in 10.0 mi Variable 3.5 mph - 0.00 in   Overcast
5:35 PM 24.8 °F 19.1 °F 21.2 °F 86% 29.96 in 10.0 mi WSW 4.6 mph - N/A   Overcast
5:46 PM 24.8 °F 19.1 °F 21.2 °F 86% 29.96 in 10.0 mi Variable 4.6 mph - N/A   Overcast
5:53 PM 23.0 °F 17.0 °F 21.9 °F 96% 30.10 in 10.0 mi Variable 4.6 mph - N/A   Mostly Cloudy
6:08 PM 23.0 °F 15.8 °F 21.2 °F 93% 29.96 in 10.0 mi SW 5.8 mph - N/A   Mostly Cloudy
6:53 PM 23.0 °F - 21.9 °F 96% 30.10 in 6.0 mi Calm Calm - N/A   Overcast
7:01 PM 23.0 °F 17.0 °F 21.2 °F 93% 29.95 in 2.5 mi South 4.6 mph - N/A   Overcast
7:03 PM 23.0 °F 17.0 °F 21.2 °F 93% 29.95 in 1.8 mi South 4.6 mph - N/A   Overcast
7:08 PM 23.0 °F 18.4 °F 21.2 °F 93% 29.95 in 0.8 mi Variable 3.5 mph - N/A   Overcast
7:21 PM 23.0 °F 17.0 °F 23.0 °F 100% 29.95 in 1.0 mi Variable 4.6 mph - N/A   Overcast
7:26 PM 23.0 °F 18.4 °F 23.0 °F 100% 29.95 in 2.0 mi SSE 3.5 mph - N/A   Overcast
7:35 PM 23.0 °F 17.0 °F 23.0 °F 100% 29.94 in 1.2 mi South 4.6 mph - N/A   Overcast
7:42 PM 23.0 °F 18.4 °F 23.0 °F 100% 29.94 in 2.0 mi Variable 3.5 mph - N/A   Overcast
7:50 PM 23.0 °F 17.0 °F 21.2 °F 93% 29.94 in 3.0 mi SSE 4.6 mph - N/A   Overcast
7:53 PM 23.0 °F 17.0 °F 21.9 °F 96% 30.08 in 2.0 mi SSE 4.6 mph - N/A   Overcast
8:01 PM 23.0 °F 17.0 °F 21.2 °F 93% 29.93 in 1.5 mi Variable 4.6 mph - N/A   Overcast
8:19 PM 21.2 °F 14.9 °F 21.2 °F 100% 29.94 in 3.0 mi Variable 4.6 mph - N/A   Overcast
8:48 PM 21.2 °F 13.6 °F 21.2 °F 100% 29.94 in 2.0 mi Variable 5.8 mph - N/A   Overcast
8:53 PM 21.9 °F 14.5 °F 21.9 °F 100% 30.08 in 1.5 mi Variable 5.8 mph - N/A   Overcast
8:58 PM 23.0 °F 13.9 °F 21.2 °F 93% 29.93 in 1.0 mi SSE 8.1 mph - N/A   Mist
9:10 PM 23.0 °F 13.9 °F 21.2 °F 93% 29.93 in 0.8 mi SSE 8.1 mph - N/A   Mist
9:53 PM 21.9 °F 13.4 °F 21.9 °F 100% 30.06 in 0.8 mi Variable 6.9 mph - N/A   Mist
10:03 PM 23.0 °F 14.7 °F 21.2 °F 93% 29.92 in 1.0 mi Variable 6.9 mph - N/A   Mist
10:41 PM 21.2 °F 12.6 °F 21.2 °F 100% 29.91 in 0.8 mi Variable 6.9 mph - N/A   Mist
10:53 PM 21.9 °F 13.4 °F 21.0 °F 96% 30.04 in 0.5 mi SSE 6.9 mph - N/A Fog Light Freezing Fog
11:15 PM 21.2 °F 11.7 °F 21.2 °F 100% 29.90 in 1.2 mi SSE 8.1 mph - N/A   Overcast
11:23 PM 21.2 °F 11.7 °F 21.2 °F 100% 29.90 in 1.5 mi SSE 8.1 mph - N/A   Overcast
11:34 PM 21.2 °F 10.1 °F 21.2 °F 100% 29.90 in 1.0 mi South 10.4 mph 16.1 mph N/A   Mist
11:36 PM 21.2 °F 10.9 °F 21.2 °F 100% 29.90 in 0.8 mi South 9.2 mph 16.1 mph N/A   Mist
11:44 PM 21.2 °F 10.9 °F 21.2 °F 100% 29.90 in 1.0 mi SSE 9.2 mph - N/A   Overcast
11:48 PM 21.2 °F 11.7 °F 21.2 °F 100% 29.90 in 2.5 mi SSE 8.1 mph - N/A   Overcast
11:53 PM 21.9 °F 12.5 °F 21.0 °F 96% 30.03 in 9.0 mi SSE 8.1 mph - N/A   Overcast